Voltar ao catálogo

COSMOS 1275 DEB

AtivoPO
NORAD 39936·DEBRIS·🇷🇺 Russia

Lançado Jun 4, 1981 de Plesetsk Cosmodrome

Loading…

Próximas Passagens (próximas 24 horas)

TLE

AtualizadoSource: Space-Track

Época: Sep 13, 2026, 09:51 UTC

1 39936U 81053MW  26256.41083494  .00000516  00000-0  39223-3 0  9995
2 39936  83.1480 134.3536 0057559 294.2029  65.3127 13.91251389610924

Acompanhe COSMOS 1275 DEB em tempo real com AllMySat

Download on the App Store